Time,TemperatureF,DewpointF,PressureIn,WindDirection,WindDirectionDegrees,WindSpeedMPH,WindSpeedGustMPH,Humidity,HourlyPrecipIn,Conditions,Clouds,dailyrainin,SoftwareType,DateUTC
2013-01-29 00:03:00,42.0,42.0,30.03,ENE,67,0.0,0.0,100,0.00,,,0.08,,2013-01-29 05:03:00,
2013-01-29 00:12:00,42.0,42.0,30.03,ENE,67,0.0,0.0,100,0.00,,,0.08,,2013-01-29 05:12:00,
2013-01-29 00:21:00,42.0,42.0,30.03,East,90,0.0,0.0,100,0.00,,,0.08,,2013-01-29 05:21:00,
2013-01-29 00:32:00,42.0,42.0,30.03,ENE,67,0.0,0.0,100,0.00,,,0.08,,2013-01-29 05:32:00,
2013-01-29 00:42:00,42.0,42.0,30.03,ENE,67,0.0,0.0,100,0.00,,,0.08,,2013-01-29 05:42:00,
2013-01-29 00:52:00,42.0,42.0,30.03,ENE,67,0.0,0.0,100,0.00,,,0.08,,2013-01-29 05:52:00,
2013-01-29 01:02:00,42.0,42.0,30.03,ENE,67,0.0,0.0,100,0.00,,,0.08,,2013-01-29 06:02:00,
2013-01-29 01:11:00,42.0,42.0,30.03,ENE,67,0.0,0.0,100,0.00,,,0.08,,2013-01-29 06:11:00,
2013-01-29 01:52:00,42.0,42.0,30.01,East,90,0.0,0.0,100,0.00,,,0.09,,2013-01-29 06:52:00,
2013-01-29 02:02:00,43.0,43.0,30.00,East,90,0.0,0.0,100,0.00,,,0.09,,2013-01-29 07:02:00,
2013-01-29 02:11:00,43.0,43.0,30.00,East,90,0.0,0.0,100,0.00,,,0.09,,2013-01-29 07:11:00,
2013-01-29 02:21:00,43.0,43.0,29.98,East,90,0.0,0.0,100,0.00,,,0.09,,2013-01-29 07:21:00,
2013-01-29 02:32:00,43.0,43.0,29.98,ENE,67,0.0,3.0,100,0.00,,,0.09,,2013-01-29 07:32:00,
2013-01-29 02:42:00,43.0,43.0,29.98,ENE,67,0.0,3.0,100,0.00,,,0.09,,2013-01-29 07:42:00,
2013-01-29 02:52:00,43.0,43.0,29.97,SE,135,4.0,4.0,100,0.00,,,0.09,,2013-01-29 07:52:00,
2013-01-29 03:02:00,43.0,43.0,29.97,SE,135,3.0,4.0,100,0.00,,,0.09,,2013-01-29 08:02:00,
2013-01-29 03:11:00,43.0,43.0,29.97,SE,135,3.0,4.0,100,0.00,,,0.09,,2013-01-29 08:11:00,
2013-01-29 03:21:00,43.0,43.0,29.97,ESE,112,3.0,5.0,100,0.00,,,0.09,,2013-01-29 08:21:00,
2013-01-29 03:31:00,43.0,43.0,29.95,East,90,1.0,0.0,100,0.00,,,0.09,,2013-01-29 08:31:00,
2013-01-29 03:42:00,43.0,43.0,29.95,East,90,1.0,0.0,100,0.00,,,0.09,,2013-01-29 08:42:00,
2013-01-29 03:52:00,44.0,44.0,29.93,ESE,112,1.0,0.0,100,0.00,,,0.10,,2013-01-29 08:52:00,
2013-01-29 04:01:00,44.0,44.0,29.93,ESE,112,0.0,0.0,100,0.00,,,0.10,,2013-01-29 09:01:00,
2013-01-29 04:11:00,44.0,44.0,29.93,ESE,112,0.0,0.0,100,0.00,,,0.10,,2013-01-29 09:11:00,
2013-01-29 04:21:00,45.0,45.0,29.93,ESE,112,1.0,3.0,100,0.00,,,0.10,,2013-01-29 09:21:00,
2013-01-29 04:32:00,46.0,46.0,29.94,SE,135,1.0,3.0,100,0.00,,,0.10,,2013-01-29 09:32:00,
2013-01-29 04:42:00,46.0,46.0,29.94,SE,135,1.0,3.0,100,0.00,,,0.10,,2013-01-29 09:42:00,
2013-01-29 04:52:00,46.0,46.0,29.91,SSE,157,0.0,0.0,100,0.00,,,0.10,,2013-01-29 09:52:00,
2013-01-29 05:01:00,46.0,46.0,29.91,SSE,157,0.0,3.0,100,0.00,,,0.10,,2013-01-29 10:01:00,
2013-01-29 05:11:00,46.0,46.0,29.91,SSE,157,0.0,3.0,100,0.00,,,0.10,,2013-01-29 10:11:00,
2013-01-29 05:21:00,47.0,47.0,29.89,SSE,157,0.0,1.0,100,0.00,,,0.10,,2013-01-29 10:21:00,
2013-01-29 05:32:00,48.0,48.0,29.89,South,180,0.0,2.0,100,0.00,,,0.09,,2013-01-29 10:32:00,
2013-01-29 05:42:00,48.0,48.0,29.89,South,180,0.0,2.0,100,0.00,,,0.09,,2013-01-29 10:42:00,
2013-01-29 05:52:00,51.0,51.0,29.87,SW,225,2.0,3.0,100,0.00,,,0.09,,2013-01-29 10:52:00,
2013-01-29 06:02:00,52.0,52.0,29.88,SW,225,4.0,10.0,100,0.00,,,0.09,,2013-01-29 11:02:00,
2013-01-29 06:11:00,52.0,52.0,29.88,SW,225,4.0,10.0,100,0.00,,,0.09,,2013-01-29 11:11:00,
2013-01-29 06:22:00,52.0,52.0,29.85,SW,225,5.0,6.0,100,0.00,,,0.08,,2013-01-29 11:22:00,
2013-01-29 06:32:00,53.0,53.0,29.85,WSW,247,7.0,10.0,100,0.00,,,0.08,,2013-01-29 11:32:00,
2013-01-29 06:42:00,53.0,53.0,29.85,WSW,247,7.0,10.0,100,0.00,,,0.08,,2013-01-29 11:42:00,
2013-01-29 06:53:00,52.0,52.0,29.85,SW,225,7.0,11.0,100,0.00,,,0.08,,2013-01-29 11:53:00,
2013-01-29 07:02:00,52.0,52.0,29.85,WSW,247,5.0,10.0,100,0.00,,,0.08,,2013-01-29 12:02:00,
2013-01-29 07:12:00,53.0,53.0,29.85,SW,225,5.0,8.0,100,0.00,,,0.08,,2013-01-29 12:12:00,
2013-01-29 07:22:00,53.0,53.0,29.85,SW,225,5.0,8.0,100,0.00,,,0.08,,2013-01-29 12:22:00,
2013-01-29 07:33:00,53.0,53.0,29.84,SW,225,7.0,13.0,100,0.00,,,0.08,,2013-01-29 12:33:00,
2013-01-29 07:43:00,53.0,53.0,29.84,SW,225,7.0,13.0,100,0.00,,,0.08,,2013-01-29 12:43:00,
2013-01-29 07:53:00,53.0,53.0,29.85,SW,225,6.0,10.0,100,0.00,,,0.08,,2013-01-29 12:53:00,
2013-01-29 08:02:00,53.0,53.0,29.85,SW,225,6.0,10.0,100,0.00,,,0.08,,2013-01-29 13:02:00,
2013-01-29 08:12:00,53.0,53.0,29.85,SW,225,6.0,10.0,100,0.00,,,0.08,,2013-01-29 13:12:00,
2013-01-29 08:22:00,53.0,53.0,29.85,WSW,247,7.0,13.0,100,0.00,,,0.13,,2013-01-29 13:22:00,
2013-01-29 08:32:00,53.0,53.0,29.87,SW,225,6.0,10.0,100,0.00,,,0.14,,2013-01-29 13:32:00,
2013-01-29 08:42:00,53.0,53.0,29.87,SW,225,6.0,10.0,100,0.00,,,0.14,,2013-01-29 13:42:00,
2013-01-29 08:52:00,53.0,53.0,29.85,South,180,6.0,12.0,100,0.00,,,0.17,,2013-01-29 13:52:00,
2013-01-29 09:02:00,53.0,53.0,29.85,WSW,247,6.0,12.0,100,0.00,,,0.17,,2013-01-29 14:02:00,
2013-01-29 09:12:00,53.0,53.0,29.85,SW,225,6.0,10.0,100,0.00,,,0.17,,2013-01-29 14:12:00,
2013-01-29 09:22:00,53.0,53.0,29.85,SW,225,6.0,10.0,100,0.00,,,0.17,,2013-01-29 14:22:00,
2013-01-29 09:33:00,53.0,53.0,29.84,West,270,8.0,18.0,100,0.00,,,0.16,,2013-01-29 14:33:00,
2013-01-29 09:43:00,53.0,53.0,29.84,West,270,8.0,18.0,100,0.00,,,0.16,,2013-01-29 14:43:00,
2013-01-29 09:53:00,53.0,53.0,29.83,SW,225,6.0,12.0,100,0.00,,,0.16,,2013-01-29 14:53:00,
2013-01-29 10:02:00,53.0,53.0,29.85,WSW,247,7.0,11.0,100,0.00,,,0.15,,2013-01-29 15:02:00,
2013-01-29 10:12:00,53.0,53.0,29.85,WSW,247,7.0,11.0,100,0.00,,,0.15,,2013-01-29 15:12:00,
2013-01-29 10:22:00,53.0,53.0,29.84,SSW,202,7.0,11.0,100,0.00,,,0.15,,2013-01-29 15:22:00,
2013-01-29 10:33:00,54.0,54.0,29.84,SSW,202,4.0,6.0,100,0.00,,,0.15,,2013-01-29 15:33:00,
2013-01-29 10:43:00,54.0,54.0,29.84,SSW,202,4.0,6.0,100,0.00,,,0.15,,2013-01-29 15:43:00,
2013-01-29 10:53:00,54.0,54.0,29.83,SW,225,6.0,8.0,100,0.00,,,0.15,,2013-01-29 15:53:00,
2013-01-29 11:02:00,54.0,54.0,29.85,WSW,247,6.0,12.0,100,0.00,,,0.15,,2013-01-29 16:02:00,
2013-01-29 11:12:00,54.0,54.0,29.85,WSW,247,6.0,12.0,100,0.00,,,0.15,,2013-01-29 16:12:00,
2013-01-29 11:23:00,54.0,54.0,29.85,SW,225,5.0,9.0,100,0.00,,,0.15,,2013-01-29 16:23:00,
2013-01-29 11:32:00,54.0,54.0,29.85,WSW,247,7.0,16.0,100,0.00,,,0.15,,2013-01-29 16:32:00,
2013-01-29 11:43:00,54.0,54.0,29.85,WSW,247,7.0,16.0,100,0.00,,,0.15,,2013-01-29 16:43:00,
2013-01-29 11:53:00,54.0,54.0,29.83,WSW,247,5.0,11.0,100,0.00,,,0.16,,2013-01-29 16:53:00,
2013-01-29 12:03:00,54.0,54.0,29.84,WSW,247,6.0,11.0,100,0.00,,,0.16,,2013-01-29 17:03:00,
2013-01-29 12:12:00,54.0,54.0,29.84,WSW,247,6.0,11.0,100,0.00,,,0.16,,2013-01-29 17:12:00,
2013-01-29 12:22:00,54.0,54.0,29.82,SSW,202,4.0,6.0,100,0.00,,,0.15,,2013-01-29 17:22:00,
2013-01-29 12:32:00,54.0,54.0,29.83,SW,225,3.0,6.0,100,0.00,,,0.15,,2013-01-29 17:32:00,
2013-01-29 12:42:00,54.0,54.0,29.83,SW,225,3.0,6.0,100,0.00,,,0.15,,2013-01-29 17:42:00,
2013-01-29 12:52:00,55.0,55.0,29.82,WSW,247,4.0,5.0,100,0.00,,,0.15,,2013-01-29 17:52:00,
2013-01-29 13:04:00,55.0,55.0,29.80,WSW,247,4.0,5.0,100,0.00,,,0.15,,2013-01-29 18:04:00,
2013-01-29 13:12:00,55.0,55.0,29.80,WSW,247,4.0,5.0,100,0.00,,,0.15,,2013-01-29 18:12:00,
2013-01-29 13:22:00,55.0,55.0,29.80,SW,225,5.0,7.0,100,0.00,,,0.15,,2013-01-29 18:22:00,
2013-01-29 13:33:00,56.0,56.0,29.78,WSW,247,4.0,6.0,100,0.00,,,0.15,,2013-01-29 18:33:00,
2013-01-29 13:42:00,56.0,56.0,29.78,WSW,247,4.0,6.0,100,0.00,,,0.15,,2013-01-29 18:42:00,
2013-01-29 13:52:00,56.0,56.0,29.77,SW,225,4.0,7.0,100,0.00,,,0.15,,2013-01-29 18:52:00,
2013-01-29 14:03:00,56.0,56.0,29.76,SW,225,5.0,7.0,100,0.00,,,0.15,,2013-01-29 19:03:00,
2013-01-29 14:12:00,56.0,56.0,29.76,SW,225,5.0,7.0,100,0.00,,,0.15,,2013-01-29 19:12:00,
2013-01-29 14:22:00,56.0,56.0,29.76,SW,225,4.0,6.0,100,0.00,,,0.15,,2013-01-29 19:22:00,
2013-01-29 14:32:00,56.0,56.0,29.75,SW,225,3.0,5.0,100,0.00,,,0.15,,2013-01-29 19:32:00,
2013-01-29 14:42:00,56.0,56.0,29.75,SW,225,3.0,5.0,100,0.00,,,0.15,,2013-01-29 19:42:00,
2013-01-29 14:52:00,57.0,57.0,29.75,WSW,247,3.0,7.0,100,0.00,,,0.15,,2013-01-29 19:52:00,
2013-01-29 15:02:00,56.0,56.0,29.74,WSW,247,4.0,6.0,100,0.00,,,0.15,,2013-01-29 20:02:00,
2013-01-29 15:12:00,56.0,56.0,29.74,WSW,247,4.0,6.0,100,0.00,,,0.15,,2013-01-29 20:12:00,
2013-01-29 15:22:00,56.0,56.0,29.72,SW,225,2.0,0.0,100,0.00,,,0.15,,2013-01-29 20:22:00,
2013-01-29 15:33:00,56.0,56.0,29.72,South,180,2.0,2.0,100,0.00,,,0.15,,2013-01-29 20:33:00,
2013-01-29 15:42:00,56.0,56.0,29.72,South,180,2.0,2.0,100,0.00,,,0.15,,2013-01-29 20:42:00,
2013-01-29 15:53:00,56.0,56.0,29.72,SW,225,2.0,4.0,100,0.00,,,0.17,,2013-01-29 20:53:00,
2013-01-29 16:03:00,56.0,56.0,29.72,SW,225,3.0,8.0,100,0.00,,,0.16,,2013-01-29 21:03:00,
2013-01-29 16:12:00,56.0,56.0,29.72,SW,225,3.0,8.0,100,0.00,,,0.16,,2013-01-29 21:12:00,
2013-01-29 16:22:00,56.0,56.0,29.74,SW,225,4.0,6.0,100,0.00,,,0.16,,2013-01-29 21:22:00,
2013-01-29 16:33:00,56.0,56.0,29.71,SW,225,5.0,16.0,100,0.00,,,0.16,,2013-01-29 21:33:00,
2013-01-29 16:42:00,56.0,56.0,29.71,SW,225,5.0,16.0,100,0.00,,,0.16,,2013-01-29 21:42:00,
2013-01-29 16:53:00,56.0,56.0,29.71,WSW,247,5.0,11.0,100,0.00,,,0.18,,2013-01-29 21:53:00,
2013-01-29 17:03:00,56.0,56.0,29.72,SE,135,4.0,7.0,100,0.00,,,0.19,,2013-01-29 22:03:00,
2013-01-29 17:12:00,56.0,56.0,29.72,SE,135,4.0,7.0,100,0.00,,,0.19,,2013-01-29 22:12:00,
2013-01-29 17:22:00,56.0,56.0,29.72,South,180,5.0,9.0,100,0.00,,,0.19,,2013-01-29 22:22:00,
2013-01-29 17:33:00,56.0,56.0,29.72,South,180,3.0,6.0,100,0.00,,,0.20,,2013-01-29 22:33:00,
2013-01-29 17:42:00,56.0,56.0,29.72,South,180,3.0,6.0,100,0.00,,,0.20,,2013-01-29 22:42:00,
2013-01-29 17:53:00,55.0,55.0,29.72,SW,225,3.0,10.0,100,0.00,,,0.21,,2013-01-29 22:53:00,
2013-01-29 18:02:00,55.0,55.0,29.71,South,180,5.0,10.0,100,0.00,,,0.29,,2013-01-29 23:02:00,
2013-01-29 18:12:00,55.0,55.0,29.71,South,180,5.0,10.0,100,0.00,,,0.29,,2013-01-29 23:12:00,
2013-01-29 18:23:00,55.0,55.0,29.71,ESE,112,3.0,9.0,100,0.00,,,0.35,,2013-01-29 23:23:00,
2013-01-29 18:33:00,55.0,55.0,29.69,SE,135,3.0,7.0,100,0.00,,,0.36,,2013-01-29 23:33:00,
2013-01-29 18:42:00,55.0,55.0,29.69,SE,135,3.0,7.0,100,0.00,,,0.36,,2013-01-29 23:42:00,
2013-01-29 18:53:00,55.0,55.0,29.69,SSW,202,4.0,8.0,100,0.00,,,0.37,,2013-01-29 23:53:00,
2013-01-29 19:03:00,55.0,55.0,29.69,South,180,3.0,8.0,100,0.00,,,0.37,,2013-01-30 00:03:00,
2013-01-29 19:12:00,55.0,55.0,29.69,South,180,3.0,8.0,100,0.00,,,0.37,,2013-01-30 00:12:00,
2013-01-29 19:22:00,56.0,56.0,29.69,SW,225,3.0,10.0,100,0.00,,,0.37,,2013-01-30 00:22:00,
2013-01-29 19:32:00,56.0,56.0,29.67,South,180,4.0,8.0,100,0.00,,,0.37,,2013-01-30 00:32:00,
2013-01-29 19:43:00,56.0,56.0,29.67,South,180,4.0,8.0,100,0.00,,,0.37,,2013-01-30 00:43:00,
2013-01-29 19:53:00,57.0,57.0,29.66,SSE,157,5.0,6.0,100,0.00,,,0.37,,2013-01-30 00:53:00,
2013-01-29 20:02:00,57.0,57.0,29.65,ESE,112,5.0,9.0,100,0.00,,,0.37,,2013-01-30 01:02:00,
2013-01-29 20:12:00,57.0,57.0,29.65,ESE,112,5.0,9.0,100,0.00,,,0.37,,2013-01-30 01:12:00,
2013-01-29 20:22:00,57.0,57.0,29.64,SE,135,4.0,9.0,100,0.00,,,0.37,,2013-01-30 01:22:00,
2013-01-29 20:32:00,57.0,57.0,29.63,SW,225,4.0,9.0,100,0.00,,,0.37,,2013-01-30 01:32:00,
2013-01-29 20:42:00,57.0,57.0,29.63,SW,225,4.0,9.0,100,0.00,,,0.37,,2013-01-30 01:42:00,
2013-01-29 20:52:00,57.0,57.0,29.61,South,180,5.0,8.0,100,0.00,,,0.37,,2013-01-30 01:52:00,
2013-01-29 21:02:00,57.0,57.0,29.61,SE,135,5.0,8.0,100,0.00,,,0.37,,2013-01-30 02:02:00,
2013-01-29 21:12:00,57.0,57.0,29.59,SW,225,4.0,6.0,100,0.00,,,0.37,,2013-01-30 02:12:00,
2013-01-29 21:22:00,57.0,57.0,29.59,SW,225,4.0,6.0,100,0.00,,,0.37,,2013-01-30 02:22:00,
2013-01-29 21:33:00,57.0,57.0,29.59,East,90,5.0,10.0,100,0.00,,,0.36,,2013-01-30 02:33:00,
2013-01-29 21:42:00,57.0,57.0,29.59,East,90,5.0,10.0,100,0.00,,,0.36,,2013-01-30 02:42:00,
2013-01-29 21:53:00,58.0,58.0,29.57,South,180,4.0,12.0,100,0.00,,,0.36,,2013-01-30 02:53:00,
2013-01-29 22:03:00,59.0,59.0,29.56,South,180,7.0,13.0,100,0.00,,,0.36,,2013-01-30 03:03:00,
2013-01-29 22:12:00,59.0,59.0,29.56,South,180,7.0,13.0,100,0.00,,,0.36,,2013-01-30 03:12:00,
2013-01-29 22:22:00,59.0,59.0,29.54,South,180,5.0,12.0,100,0.00,,,0.36,,2013-01-30 03:22:00,
2013-01-29 22:32:00,59.0,59.0,29.54,South,180,6.0,7.0,100,0.00,,,0.36,,2013-01-30 03:32:00,
2013-01-29 22:42:00,59.0,59.0,29.54,South,180,6.0,7.0,100,0.00,,,0.36,,2013-01-30 03:42:00,
2013-01-29 22:52:00,59.0,59.0,29.51,SSW,202,6.0,11.0,100,0.00,,,0.36,,2013-01-30 03:52:00,
2013-01-29 23:02:00,59.0,59.0,29.50,SW,225,5.0,5.0,100,0.00,,,0.36,,2013-01-30 04:02:00,
2013-01-29 23:12:00,59.0,59.0,29.50,SW,225,5.0,5.0,100,0.00,,,0.36,,2013-01-30 04:12:00,
2013-01-29 23:22:00,59.0,59.0,29.49,WSW,247,4.0,10.0,100,0.00,,,0.36,,2013-01-30 04:22:00,
2013-01-29 23:32:00,60.0,60.0,29.48,SSE,157,6.0,12.0,100,0.00,,,0.36,,2013-01-30 04:32:00,
2013-01-29 23:42:00,60.0,60.0,29.48,SSE,157,6.0,12.0,100,0.00,,,0.36,,2013-01-30 04:42:00,
2013-01-29 23:52:00,60.0,60.0,29.44,SSE,157,7.0,12.0,100,0.00,,,0.36,,2013-01-30 04:52:00,